TimeEET,TemperatureF,Dew PointF,Humidity,Sea Level PressureIn,VisibilityMPH,Wind Direction,Wind SpeedMPH,Gust SpeedMPH,PrecipitationIn,Events,Conditions,WindDirDegrees,DateUTC
12:20 AM,37.4,30.2,75,30.18,-9999.0,South,3.5,-,N/A,,Clear,180,2013-03-18 22:20:00
12:50 AM,39.2,30.2,70,30.18,-9999.0,South,4.6,-,N/A,,Clear,170,2013-03-18 22:50:00
1:20 AM,39.2,28.4,65,30.18,-9999.0,South,6.9,-,N/A,,Clear,180,2013-03-18 23:20:00
1:50 AM,39.2,28.4,65,30.15,-9999.0,South,8.1,-,N/A,,Clear,190,2013-03-18 23:50:00
2:00 AM,39,28,55,30.18,12,South,8.1,,,,,190,2013-03-19 00:00:00
2:20 AM,39.2,28.4,65,30.15,-9999.0,South,4.6,-,N/A,,Clear,170,2013-03-19 00:20:00
2:50 AM,39.2,28.4,65,30.12,-9999.0,South,4.6,-,N/A,,Clear,190,2013-03-19 00:50:00
3:20 AM,37.4,28.4,70,30.12,-9999.0,SSW,4.6,-,N/A,,Clear,210,2013-03-19 01:20:00
3:50 AM,39.2,28.4,65,30.12,-9999.0,Calm,Calm,-,N/A,,Clear,0,2013-03-19 01:50:00
4:20 AM,39.2,28.4,65,30.09,-9999.0,SE,4.6,-,N/A,,Clear,130,2013-03-19 02:20:00
4:50 AM,37.4,28.4,70,30.09,-9999.0,ESE,4.6,-,N/A,,Clear,120,2013-03-19 02:50:00
5:20 AM,35.6,28.4,75,30.06,-9999.0,Calm,Calm,-,N/A,,Clear,0,2013-03-19 03:20:00
5:50 AM,37.4,28.4,70,30.06,-9999.0,Calm,Calm,-,N/A,,Clear,0,2013-03-19 03:50:00
6:20 AM,39.2,28.4,65,30.06,-9999.0,Calm,Calm,-,N/A,,Clear,0,2013-03-19 04:20:00
6:50 AM,42.8,30.2,61,30.04,-9999.0,Calm,Calm,-,N/A,,Clear,0,2013-03-19 04:50:00
7:20 AM,44.6,33.8,66,30.04,-9999.0,East,5.8,-,N/A,,Clear,90,2013-03-19 05:20:00
8:00 AM,44,29,45,30.04,12,East,10.4,,,,,80,2013-03-19 06:00:00
8:20 AM,42.8,32.0,66,30.01,-9999.0,East,10.4,-,N/A,,Clear,90,2013-03-19 06:20:00
8:50 AM,44.6,32.0,61,30.01,-9999.0,East,11.5,-,N/A,,Clear,90,2013-03-19 06:50:00
9:20 AM,44.6,33.8,66,29.98,-9999.0,East,12.7,-,N/A,,Clear,80,2013-03-19 07:20:00
9:50 AM,44.6,33.8,66,29.98,-9999.0,East,11.5,-,N/A,,Clear,80,2013-03-19 07:50:00
10:20 AM,44.6,33.8,66,29.98,-9999.0,East,10.4,-,N/A,,Clear,80,2013-03-19 08:20:00
10:50 AM,44.6,33.8,66,29.98,6.2,East,10.4,-,N/A,,Scattered Clouds,80,2013-03-19 08:50:00
11:20 AM,46.4,35.6,66,29.95,6.2,East,10.4,-,N/A,,Scattered Clouds,80,2013-03-19 09:20:00
11:50 AM,46.4,35.6,66,29.92,6.2,East,13.8,-,N/A,,Scattered Clouds,80,2013-03-19 09:50:00
12:20 PM,46.4,37.4,71,29.92,6.2,East,12.7,-,N/A,,Scattered Clouds,90,2013-03-19 10:20:00
12:50 PM,46.4,37.4,71,29.89,6.2,East,12.7,-,N/A,,Scattered Clouds,90,2013-03-19 10:50:00
1:20 PM,46.4,39.2,76,29.89,6.2,East,11.5,-,N/A,,Scattered Clouds,80,2013-03-19 11:20:00
1:50 PM,46.4,39.2,76,29.89,6.2,East,9.2,-,N/A,,Scattered Clouds,80,2013-03-19 11:50:00
2:00 PM,47,39,64,29.92,12,East,9.2,,,,Partly Cloudy,80,2013-03-19 12:00:00
2:20 PM,48.2,39.2,71,29.89,6.2,East,9.2,-,N/A,,Scattered Clouds,90,2013-03-19 12:20:00
2:50 PM,46.4,39.2,76,29.89,6.2,East,11.5,-,N/A,,Scattered Clouds,80,2013-03-19 12:50:00
3:20 PM,46.4,39.2,76,29.86,6.2,East,11.5,-,N/A,,Scattered Clouds,80,2013-03-19 13:20:00
3:50 PM,46.4,39.2,76,29.86,6.2,East,13.8,-,N/A,,Scattered Clouds,80,2013-03-19 13:50:00
4:20 PM,48.2,39.2,71,29.86,6.2,East,11.5,-,N/A,,Scattered Clouds,90,2013-03-19 14:20:00
4:50 PM,46.4,39.2,76,29.86,6.2,East,4.6,-,N/A,,Scattered Clouds,100,2013-03-19 14:50:00
5:20 PM,48.2,39.2,71,29.86,6.2,East,4.6,-,N/A,,Mostly Cloudy,90,2013-03-19 15:20:00
5:50 PM,48.2,37.4,66,29.89,6.2,ESE,3.5,-,N/A,,Mostly Cloudy,110,2013-03-19 15:50:00
6:20 PM,48.2,39.2,71,29.89,6.2,East,1.2,-,N/A,,Mostly Cloudy,80,2013-03-19 16:20:00
6:50 PM,46.4,39.2,76,29.89,6.2,East,2.3,-,N/A,,Mostly Cloudy,80,2013-03-19 16:50:00
7:20 PM,46.4,41.0,81,29.89,2.5,SE,5.8,-,N/A,,Mostly Cloudy,130,2013-03-19 17:20:00
7:50 PM,46.4,39.2,76,29.86,4.3,ESE,5.8,-,N/A,,Mostly Cloudy,110,2013-03-19 17:50:00
8:00 PM,46,38,65,29.89,4,ESE,5.8,,,,Mist,110,2013-03-19 18:00:00
8:20 PM,46.4,39.2,76,29.86,-9999.0,SE,3.5,-,N/A,,Mostly Cloudy,140,2013-03-19 18:20:00
8:50 PM,46.4,39.2,76,29.86,6.2,Variable,2.3,16.1,N/A,,Scattered Clouds,0,2013-03-19 18:50:00
9:20 PM,50.0,37.4,62,29.86,3.7,West,3.5,-,N/A,,Scattered Clouds,260,2013-03-19 19:20:00
9:50 PM,50.0,39.2,66,29.83,3.7,Variable,2.3,-,N/A,,Scattered Clouds,0,2013-03-19 19:50:00
10:20 PM,50.0,41.0,71,29.86,6.2,Variable,4.6,-,N/A,,Scattered Clouds,0,2013-03-19 20:20:00
10:50 PM,64.4,21.2,19,29.86,6.2,SSW,15.0,27.6,N/A,,Scattered Clouds,200,2013-03-19 20:50:00
11:20 PM,64.4,21.2,19,29.86,6.2,SSW,15.0,-,N/A,,Mostly Cloudy,210,2013-03-19 21:20:00
11:50 PM,66.2,23.0,19,29.86,6.2,SSW,17.3,-,N/A,,Mostly Cloudy,210,2013-03-19 21:50:00